Flag for Australia Weather past 2 weeks in Campbelltown, New South Wales, Australia

Now
49 °F

Cool.


Feels Like: 48 °F
Forecast: 50 / 67 °F
Wind: 3 mph from North

Location: Camden Airport

Current Time: Jul 28, 2014 at 9:23:31 PM

Latest Report: Jul 28, 2014 at 8:00 PM


Visibility: N/A

Pressure: 30.11 "Hg

Humidity: 82%

Dew point: 43 °F

Location of CampbelltownLocation

Historic Weather in Campbelltown — Graph

°F

Campbelltown temperature yesterday

Maximum temperature yesterday: 67 °F (at 3:00 PM)
Minimum temperature yesterday: 38 °F (at 6:00 AM)
Average temperature yesterday: 51 °F

Past Weeks' High & Low Weather Summary

 TemperatureHumidityPressure
High68 °F (Jul 25, 2:00 PM)100% (Jul 15, 5:00 AM)30.48 "Hg (Jul 15, 5:00 AM)
Low30 °F (Jul 14, 5:00 AM)35% (Jul 17, 2:00 PM)29.78 "Hg (Jul 17, 2:00 PM)
Average49 °F75%30.16 "Hg
* Reported Jul 13 8:00 PM — Jul 28 8:00 PM, Campbelltown, Weather by CustomWeather, © 2014

Note: Actual official high and low records may vary slightly from our data, if they occured in-between our weather recording intervals... More about our weather records

Advertising

Campbelltown weather history for previous 24 hours

 ConditionsComfort  
Time TempWeatherWind HumidityBarometerVisibility
8:00 PM
Jul 28
49 °FCool.3 mph82%30.11 "HgN/A
6:00 PM53 °FPassing clouds.3 mph64%30.09 "HgN/A
5:00 PM58 °FRefreshingly cool.3 mph57%30.07 "HgN/A
3:00 PM64 °FOvercast.10 mph39%30.06 "HgN/A
2:00 PM63 °FMild.9 mph43%30.07 "HgN/A
12:00 PM61 °FPassing clouds.14 mph43%30.12 "HgN/A
11:00 AM58 °FRefreshingly cool.5 mph49%30.14 "HgN/A
9:00 AM48 °FOvercast.No wind81%30.16 "HgN/A
8:00 AM45 °FQuite cool.3 mph89%30.17 "HgN/A
6:00 AM41 °FOvercast.3 mph92%30.15 "HgN/A
5:00 AM40 °FQuite cool.No wind92%30.14 "HgN/A
3:00 AM40 °FOvercast.2 mph87%30.16 "HgN/A
2:00 AM38 °FChilly.No wind93%30.18 "HgN/A
12:00 AM41 °FPassing clouds.5 mph89%30.18 "HgN/A
11:00 PM
Jul 27
45 °FQuite cool.No wind85%30.19 "HgN/A
9:00 PM46 °FPassing clouds.2 mph73%30.22 "HgN/A
Weather by CustomWeather, © 2014

See weather overviewHow to use our weather pages